owner,sensor,date,latitude,longitude,mass_concentration_of_chlorophyll_in_sea_water,qcFlag 
SCCF RECON,ioos:station:SCCF:13:1,2017-04-01T00:00:00Z,26.5255,-82.0032,10.48,1111122 
SCCF RECON,ioos:station:SCCF:13:1,2017-04-01T01:00:00Z,26.5255,-82.0032,14.97,1111122 
SCCF RECON,ioos:station:SCCF:13:1,2017-04-01T02:00:00Z,26.5255,-82.0032,11.58,1111122 
SCCF RECON,ioos:station:SCCF:13:1,2017-04-01T03:00:00Z,26.5255,-82.0032,53.66,1111122 
SCCF RECON,ioos:station:SCCF:13:1,2017-04-01T04:00:00Z,26.5255,-82.0032,44.39,1111122 
SCCF RECON,ioos:station:SCCF:13:1,2017-04-01T05:00:00Z,26.5255,-82.0032,51.02,1111122 
SCCF RECON,ioos:station:SCCF:13:1,2017-04-01T06:00:00Z,26.5255,-82.0032,55.97,1111122 
SCCF RECON,ioos:station:SCCF:13:1,2017-04-01T07:00:00Z,26.5255,-82.0032,36.72,1111122 
SCCF RECON,ioos:station:SCCF:13:1,2017-04-01T08:00:00Z,26.5255,-82.0032,1.83,1111122 
SCCF RECON,ioos:station:SCCF:13:1,2017-04-01T09:00:00Z,26.5255,-82.0032,1.75,1111122 
SCCF RECON,ioos:station:SCCF:13:1,2017-04-01T10:00:00Z,26.5255,-82.0032,1.65,1111122 
SCCF RECON,ioos:station:SCCF:13:1,2017-04-01T11:00:00Z,26.5255,-82.0032,1.78,1111122 
SCCF RECON,ioos:station:SCCF:13:1,2017-04-01T12:00:00Z,26.5255,-82.0032,1.81,1111122 
SCCF RECON,ioos:station:SCCF:13:1,2017-04-01T13:00:00Z,26.5255,-82.0032,2.43,1111122 
SCCF RECON,ioos:station:SCCF:13:1,2017-04-01T14:00:00Z,26.5255,-82.0032,9.09,1111122 
SCCF RECON,ioos:station:SCCF:13:1,2017-04-01T15:00:00Z,26.5255,-82.0032,10.29,1111122 
SCCF RECON,ioos:station:SCCF:13:1,2017-04-01T16:00:00Z,26.5255,-82.0032,19.6,1111122 
SCCF RECON,ioos:station:SCCF:13:1,2017-04-01T17:00:00Z,26.5255,-82.0032,2.25,1111122 
SCCF RECON,ioos:station:SCCF:13:1,2017-04-01T18:00:00Z,26.5255,-82.0032,2.55,1111122 
SCCF RECON,ioos:station:SCCF:13:1,2017-04-01T19:00:00Z,26.5255,-82.0032,2.64,1111122 
SCCF RECON,ioos:station:SCCF:13:1,2017-04-01T20:00:00Z,26.5255,-82.0032,2.55,1111122 
SCCF RECON,ioos:station:SCCF:13:1,2017-04-01T21:00:00Z,26.5255,-82.0032,2.7,1111122 
SCCF RECON,ioos:station:SCCF:13:1,2017-04-01T22:00:00Z,26.5255,-82.0032,3.08,1111122 
SCCF RECON,ioos:station:SCCF:13:1,2017-04-01T23:00:00Z,26.5255,-82.0032,3.55,1111122 
SCCF RECON,ioos:station:SCCF:13:1,2017-04-02T00:00:00Z,26.5255,-82.0032,13.52,1111122 
SCCF RECON,ioos:station:SCCF:13:1,2017-04-02T01:00:00Z,26.5255,-82.0032,78.28,1111122 
SCCF RECON,ioos:station:SCCF:13:1,2017-04-02T02:00:00Z,26.5255,-82.0032,52.64,1111122 
SCCF RECON,ioos:station:SCCF:13:1,2017-04-02T03:00:00Z,26.5255,-82.0032,52.84,1111122 
SCCF RECON,ioos:station:SCCF:13:1,2017-04-02T04:00:00Z,26.5255,-82.0032,51.52,1111122 
SCCF RECON,ioos:station:SCCF:13:1,2017-04-02T05:00:00Z,26.5255,-82.0032,54.03,1111122 
SCCF RECON,ioos:station:SCCF:13:1,2017-04-02T06:00:00Z,26.5255,-82.0032,54.17,1111122 
SCCF RECON,ioos:station:SCCF:13:1,2017-04-02T07:00:00Z,26.5255,-82.0032,56.09,1111122 
SCCF RECON,ioos:station:SCCF:13:1,2017-04-02T08:00:00Z,26.5255,-82.0032,45.79,1111122 
SCCF RECON,ioos:station:SCCF:13:1,2017-04-02T09:00:00Z,26.5255,-82.0032,2.32,1111122 
SCCF RECON,ioos:station:SCCF:13:1,2017-04-02T10:00:00Z,26.5255,-82.0032,2.31,1111122 
SCCF RECON,ioos:station:SCCF:13:1,2017-04-02T11:00:00Z,26.5255,-82.0032,1.99,1111122 
SCCF RECON,ioos:station:SCCF:13:1,2017-04-02T12:00:00Z,26.5255,-82.0032,1.7,1111122 
SCCF RECON,ioos:station:SCCF:13:1,2017-04-02T13:00:00Z,26.5255,-82.0032,1.68,1111122 
SCCF RECON,ioos:station:SCCF:13:1,2017-04-02T14:00:00Z,26.5255,-82.0032,1.31,1111122 
SCCF RECON,ioos:station:SCCF:13:1,2017-04-02T15:00:00Z,26.5255,-82.0032,1.62,1111122 
SCCF RECON,ioos:station:SCCF:13:1,2017-04-02T16:00:00Z,26.5255,-82.0032,1.89,1111122 
SCCF RECON,ioos:station:SCCF:13:1,2017-04-02T17:00:00Z,26.5255,-82.0032,1.96,1111122 
SCCF RECON,ioos:station:SCCF:13:1,2017-04-02T18:00:00Z,26.5255,-82.0032,1.78,1111122 
SCCF RECON,ioos:station:SCCF:13:1,2017-04-02T19:00:00Z,26.5255,-82.0032,2.08,1111122 
SCCF RECON,ioos:station:SCCF:13:1,2017-04-02T20:00:00Z,26.5255,-82.0032,2.09,1111122 
SCCF RECON,ioos:station:SCCF:13:1,2017-04-02T21:00:00Z,26.5255,-82.0032,2.28,1111122 
SCCF RECON,ioos:station:SCCF:13:1,2017-04-02T22:00:00Z,26.5255,-82.0032,2.49,1111122 
SCCF RECON,ioos:station:SCCF:13:1,2017-04-02T23:00:00Z,26.5255,-82.0032,2.37,1111122 
SCCF RECON,ioos:station:SCCF:13:1,2017-04-03T00:00:00Z,26.5255,-82.0032,3.04,1111122 
SCCF RECON,ioos:station:SCCF:13:1,2017-04-03T01:00:00Z,26.5255,-82.0032,3.13,1111122 
SCCF RECON,ioos:station:SCCF:13:1,2017-04-03T02:00:00Z,26.5255,-82.0032,68.42,1111122 
SCCF RECON,ioos:station:SCCF:13:1,2017-04-03T03:00:00Z,26.5255,-82.0032,101.29,1111122 
SCCF RECON,ioos:station:SCCF:13:1,2017-04-03T04:00:00Z,26.5255,-82.0032,103.88,1111122 
SCCF RECON,ioos:station:SCCF:13:1,2017-04-03T05:00:00Z,26.5255,-82.0032,114.22,1111122 
SCCF RECON,ioos:station:SCCF:13:1,2017-04-03T06:00:00Z,26.5255,-82.0032,102.68,1111122 
SCCF RECON,ioos:station:SCCF:13:1,2017-04-03T07:00:00Z,26.5255,-82.0032,104.61,1111122 
SCCF RECON,ioos:station:SCCF:13:1,2017-04-03T08:00:00Z,26.5255,-82.0032,79.91,1111122 
SCCF RECON,ioos:station:SCCF:13:1,2017-04-03T09:00:00Z,26.5255,-82.0032,2.6,1111122 
SCCF RECON,ioos:station:SCCF:13:1,2017-04-03T10:00:00Z,26.5255,-82.0032,2.11,1111122 
SCCF RECON,ioos:station:SCCF:13:1,2017-04-03T11:00:00Z,26.5255,-82.0032,1.93,1111122 
SCCF RECON,ioos:station:SCCF:13:1,2017-04-03T12:00:00Z,26.5255,-82.0032,1.73,1111122 
SCCF RECON,ioos:station:SCCF:13:1,2017-04-03T13:00:00Z,26.5255,-82.0032,1.69,1111122 
SCCF RECON,ioos:station:SCCF:13:1,2017-04-03T14:00:00Z,26.5255,-82.0032,1.75,1111122 
SCCF RECON,ioos:station:SCCF:13:1,2017-04-03T15:00:00Z,26.5255,-82.0032,1.8,1111122 
SCCF RECON,ioos:station:SCCF:13:1,2017-04-03T16:00:00Z,26.5255,-82.0032,1.72,1111122 
SCCF RECON,ioos:station:SCCF:13:1,2017-04-03T17:00:00Z,26.5255,-82.0032,1.6,1111122 
SCCF RECON,ioos:station:SCCF:13:1,2017-04-03T18:00:00Z,26.5255,-82.0032,1.57,1111122 
SCCF RECON,ioos:station:SCCF:13:1,2017-04-03T19:00:00Z,26.5255,-82.0032,1.57,1111122 
SCCF RECON,ioos:station:SCCF:13:1,2017-04-03T20:00:00Z,26.5255,-82.0032,1.66,1111122 
SCCF RECON,ioos:station:SCCF:13:1,2017-04-03T21:00:00Z,26.5255,-82.0032,1.83,1111122 
SCCF RECON,ioos:station:SCCF:13:1,2017-04-03T22:00:00Z,26.5255,-82.0032,2.12,1111122 
SCCF RECON,ioos:station:SCCF:13:1,2017-04-03T23:00:00Z,26.5255,-82.0032,2.43,1111122 
SCCF RECON,ioos:station:SCCF:13:1,2017-04-04T00:00:00Z,26.5255,-82.0032,3.08,1111122 
SCCF RECON,ioos:station:SCCF:13:1,2017-04-04T01:00:00Z,26.5255,-82.0032,3.39,1111122 
SCCF RECON,ioos:station:SCCF:13:1,2017-04-04T02:00:00Z,26.5255,-82.0032,2.38,1111122 
SCCF RECON,ioos:station:SCCF:13:1,2017-04-04T03:00:00Z,26.5255,-82.0032,2.2,1111122 
SCCF RECON,ioos:station:SCCF:13:1,2017-04-04T04:00:00Z,26.5255,-82.0032,33.27,1111122 
SCCF RECON,ioos:station:SCCF:13:1,2017-04-04T05:00:00Z,26.5255,-82.0032,63.32,1111122 
SCCF RECON,ioos:station:SCCF:13:1,2017-04-04T06:00:00Z,26.5255,-82.0032,59.9,1111122 
SCCF RECON,ioos:station:SCCF:13:1,2017-04-04T07:00:00Z,26.5255,-82.0032,50.47,1111122 
SCCF RECON,ioos:station:SCCF:13:1,2017-04-04T08:00:00Z,26.5255,-82.0032,52.44,1111122 
SCCF RECON,ioos:station:SCCF:13:1,2017-04-04T09:00:00Z,26.5255,-82.0032,19.12,1111122 
SCCF RECON,ioos:station:SCCF:13:1,2017-04-04T10:00:00Z,26.5255,-82.0032,1.97,1111122 
SCCF RECON,ioos:station:SCCF:13:1,2017-04-04T11:00:00Z,26.5255,-82.0032,1.59,1111122 
SCCF RECON,ioos:station:SCCF:13:1,2017-04-04T12:00:00Z,26.5255,-82.0032,1.58,1111122 
SCCF RECON,ioos:station:SCCF:13:1,2017-04-04T13:00:00Z,26.5255,-82.0032,1.52,1111122 
SCCF RECON,ioos:station:SCCF:13:1,2017-04-04T14:00:00Z,26.5255,-82.0032,2.48,1111122 
SCCF RECON,ioos:station:SCCF:13:1,2017-04-04T15:00:00Z,26.5255,-82.0032,2.97,1111122 
SCCF RECON,ioos:station:SCCF:13:1,2017-04-04T16:00:00Z,26.5255,-82.0032,3.13,1111122 
SCCF RECON,ioos:station:SCCF:13:1,2017-04-04T17:00:00Z,26.5255,-82.0032,3.54,1111122 
SCCF RECON,ioos:station:SCCF:13:1,2017-04-04T18:00:00Z,26.5255,-82.0032,2.47,1111122 
SCCF RECON,ioos:station:SCCF:13:1,2017-04-04T19:00:00Z,26.5255,-82.0032,18.25,1111122 
SCCF RECON,ioos:station:SCCF:13:1,2017-04-04T20:00:00Z,26.5255,-82.0032,80.92,1111122 
SCCF RECON,ioos:station:SCCF:13:1,2017-04-04T21:00:00Z,26.5255,-82.0032,64.66,1111122 
SCCF RECON,ioos:station:SCCF:13:1,2017-04-04T22:00:00Z,26.5255,-82.0032,6.45,1111122 
SCCF RECON,ioos:station:SCCF:13:1,2017-04-04T23:00:00Z,26.5255,-82.0032,2.12,1111122 
SCCF RECON,ioos:station:SCCF:13:1,2017-04-05T00:00:00Z,26.5255,-82.0032,3.46,1111122 
SCCF RECON,ioos:station:SCCF:13:1,2017-04-05T01:00:00Z,26.5255,-82.0032,3.64,1111122 
SCCF RECON,ioos:station:SCCF:13:1,2017-04-05T02:00:00Z,26.5255,-82.0032,3.93,1111122 
SCCF RECON,ioos:station:SCCF:13:1,2017-04-05T03:00:00Z,26.5255,-82.0032,2.14,1111122 
SCCF RECON,ioos:station:SCCF:13:1,2017-04-05T04:00:00Z,26.5255,-82.0032,38.76,1111122 
SCCF RECON,ioos:station:SCCF:13:1,2017-04-05T05:00:00Z,26.5255,-82.0032,34.4,1111122 
SCCF RECON,ioos:station:SCCF:13:1,2017-04-05T06:00:00Z,26.5255,-82.0032,91.65,1111122 
SCCF RECON,ioos:station:SCCF:13:1,2017-04-05T07:00:00Z,26.5255,-82.0032,48.04,1111122 
SCCF RECON,ioos:station:SCCF:13:1,2017-04-05T08:00:00Z,26.5255,-82.0032,53.54,1111122 
SCCF RECON,ioos:station:SCCF:13:1,2017-04-05T09:00:00Z,26.5255,-82.0032,30.63,1111122 
SCCF RECON,ioos:station:SCCF:13:1,2017-04-05T10:00:00Z,26.5255,-82.0032,32.45,1111122 
SCCF RECON,ioos:station:SCCF:13:1,2017-04-05T11:00:00Z,26.5255,-82.0032,24.82,1111122 
SCCF RECON,ioos:station:SCCF:13:1,2017-04-05T12:00:00Z,26.5255,-82.0032,1.68,1111122 
SCCF RECON,ioos:station:SCCF:13:1,2017-04-05T13:00:00Z,26.5255,-82.0032,2.28,1111122 
SCCF RECON,ioos:station:SCCF:13:1,2017-04-05T14:00:00Z,26.5255,-82.0032,1.72,1111122 
SCCF RECON,ioos:station:SCCF:13:1,2017-04-05T15:00:00Z,26.5255,-82.0032,2.68,1111122 
SCCF RECON,ioos:station:SCCF:13:1,2017-04-05T16:00:00Z,26.5255,-82.0032,3.44,1111122 
SCCF RECON,ioos:station:SCCF:13:1,2017-04-05T17:00:00Z,26.5255,-82.0032,3.73,1111122 
SCCF RECON,ioos:station:SCCF:13:1,2017-04-05T18:00:00Z,26.5255,-82.0032,3.79,1111122 
SCCF RECON,ioos:station:SCCF:13:1,2017-04-05T19:00:00Z,26.5255,-82.0032,3.02,1111122 
SCCF RECON,ioos:station:SCCF:13:1,2017-04-05T20:00:00Z,26.5255,-82.0032,101.16,1111122 
SCCF RECON,ioos:station:SCCF:13:1,2017-04-05T21:00:00Z,26.5255,-82.0032,93.27,1111122 
SCCF RECON,ioos:station:SCCF:13:1,2017-04-05T22:00:00Z,26.5255,-82.0032,31.55,1111122 
SCCF RECON,ioos:station:SCCF:13:1,2017-04-05T23:00:00Z,26.5255,-82.0032,3.37,1111122 
SCCF RECON,ioos:station:SCCF:13:1,2017-04-06T00:00:00Z,26.5255,-82.0032,2.48,1111122 
SCCF RECON,ioos:station:SCCF:13:1,2017-04-06T01:00:00Z,26.5255,-82.0032,2.4,1111122 
SCCF RECON,ioos:station:SCCF:13:1,2017-04-06T02:00:00Z,26.5255,-82.0032,2.52,1111122 
SCCF RECON,ioos:station:SCCF:13:1,2017-04-06T03:00:00Z,26.5255,-82.0032,2.4,1111122 
SCCF RECON,ioos:station:SCCF:13:1,2017-04-06T04:00:00Z,26.5255,-82.0032,76.07,1111122 
SCCF RECON,ioos:station:SCCF:13:1,2017-04-06T05:00:00Z,26.5255,-82.0032,121.89,1111122 
SCCF RECON,ioos:station:SCCF:13:1,2017-04-06T06:00:00Z,26.5255,-82.0032,90.29,1111122 
SCCF RECON,ioos:station:SCCF:13:1,2017-04-06T07:00:00Z,26.5255,-82.0032,86.72,1111122 
SCCF RECON,ioos:station:SCCF:13:1,2017-04-06T08:00:00Z,26.5255,-82.0032,90.89,1111122 
SCCF RECON,ioos:station:SCCF:13:1,2017-04-06T09:00:00Z,26.5255,-82.0032,101.83,1111122 
SCCF RECON,ioos:station:SCCF:13:1,2017-04-06T10:00:00Z,26.5255,-82.0032,112.99,1111122 
SCCF RECON,ioos:station:SCCF:13:1,2017-04-06T11:00:00Z,26.5255,-82.0032,72.4,1111122 
SCCF RECON,ioos:station:SCCF:13:1,2017-04-06T12:00:00Z,26.5255,-82.0032,61.72,1111122 
SCCF RECON,ioos:station:SCCF:13:1,2017-04-06T13:00:00Z,26.5255,-82.0032,1.57,1111122 
SCCF RECON,ioos:station:SCCF:13:1,2017-04-06T14:00:00Z,26.5255,-82.0032,1.81,1111122 
SCCF RECON,ioos:station:SCCF:13:1,2017-04-06T15:00:00Z,26.5255,-82.0032,2.2,1111122 
SCCF RECON,ioos:station:SCCF:13:1,2017-04-06T16:00:00Z,26.5255,-82.0032,3.23,1111122 
SCCF RECON,ioos:station:SCCF:13:1,2017-04-06T17:00:00Z,26.5255,-82.0032,3.91,1111122 
SCCF RECON,ioos:station:SCCF:13:1,2017-04-06T18:00:00Z,26.5255,-82.0032,45.26,1111122 
SCCF RECON,ioos:station:SCCF:13:1,2017-04-06T19:00:00Z,26.5255,-82.0032,37.5,1111122 
SCCF RECON,ioos:station:SCCF:13:1,2017-04-06T20:00:00Z,26.5255,-82.0032,35.53,1111122 
SCCF RECON,ioos:station:SCCF:13:1,2017-04-06T21:00:00Z,26.5255,-82.0032,39.44,1111122 
SCCF RECON,ioos:station:SCCF:13:1,2017-04-06T22:00:00Z,26.5255,-82.0032,58.96,1111122 
SCCF RECON,ioos:station:SCCF:13:1,2017-04-06T23:00:00Z,26.5255,-82.0032,79.37,1111122 
SCCF RECON,ioos:station:SCCF:13:1,2017-04-07T00:00:00Z,26.5255,-82.0032,110.07,1111122 
SCCF RECON,ioos:station:SCCF:13:1,2017-04-07T01:00:00Z,26.5255,-82.0032,2.18,1111122 
SCCF RECON,ioos:station:SCCF:13:1,2017-04-07T02:00:00Z,26.5255,-82.0032,1.89,1111122 
SCCF RECON,ioos:station:SCCF:13:1,2017-04-07T03:00:00Z,26.5255,-82.0032,1.86,1111122 
SCCF RECON,ioos:station:SCCF:13:1,2017-04-07T04:00:00Z,26.5255,-82.0032,2.05,1111122 
SCCF RECON,ioos:station:SCCF:13:1,2017-04-07T05:00:00Z,26.5255,-82.0032,1.95,1111122 
SCCF RECON,ioos:station:SCCF:13:1,2017-04-07T06:00:00Z,26.5255,-82.0032,40.49,1111122 
SCCF RECON,ioos:station:SCCF:13:1,2017-04-07T07:00:00Z,26.5255,-82.0032,38.14,1111122 
SCCF RECON,ioos:station:SCCF:13:1,2017-04-07T08:00:00Z,26.5255,-82.0032,33.18,1111122 
SCCF RECON,ioos:station:SCCF:13:1,2017-04-07T09:00:00Z,26.5255,-82.0032,76.22,1111122 
SCCF RECON,ioos:station:SCCF:13:1,2017-04-07T10:00:00Z,26.5255,-82.0032,66.06,1111122 
SCCF RECON,ioos:station:SCCF:13:1,2017-04-07T11:00:00Z,26.5255,-82.0032,82.19,1111122 
SCCF RECON,ioos:station:SCCF:13:1,2017-04-07T12:00:00Z,26.5255,-82.0032,82.61,1111122 
SCCF RECON,ioos:station:SCCF:13:1,2017-04-07T13:00:00Z,26.5255,-82.0032,63.8,1111122 
SCCF RECON,ioos:station:SCCF:13:1,2017-04-07T14:00:00Z,26.5255,-82.0032,41.72,1111122 
SCCF RECON,ioos:station:SCCF:13:1,2017-04-07T15:00:00Z,26.5255,-82.0032,1.76,1111122 
SCCF RECON,ioos:station:SCCF:13:1,2017-04-07T16:00:00Z,26.5255,-82.0032,1.66,1111122 
SCCF RECON,ioos:station:SCCF:13:1,2017-04-07T17:00:00Z,26.5255,-82.0032,1.78,1111122 
SCCF RECON,ioos:station:SCCF:13:1,2017-04-07T18:00:00Z,26.5255,-82.0032,1.81,1111122 
SCCF RECON,ioos:station:SCCF:13:1,2017-04-07T19:00:00Z,26.5255,-82.0032,1.86,1111122 
SCCF RECON,ioos:station:SCCF:13:1,2017-04-07T20:00:00Z,26.5255,-82.0032,2.34,1111122 
SCCF RECON,ioos:station:SCCF:13:1,2017-04-07T21:00:00Z,26.5255,-82.0032,1.91,1111122 
SCCF RECON,ioos:station:SCCF:13:1,2017-04-07T22:00:00Z,26.5255,-82.0032,2.21,1111122 
SCCF RECON,ioos:station:SCCF:13:1,2017-04-07T23:00:00Z,26.5255,-82.0032,1.86,1111122 
SCCF RECON,ioos:station:SCCF:13:1,2017-04-08T00:00:00Z,26.5255,-82.0032,2.19,1111122 
SCCF RECON,ioos:station:SCCF:13:1,2017-04-08T01:00:00Z,26.5255,-82.0032,2.26,1111122 
SCCF RECON,ioos:station:SCCF:13:1,2017-04-08T02:00:00Z,26.5255,-82.0032,1.98,1111122 
SCCF RECON,ioos:station:SCCF:13:1,2017-04-08T03:00:00Z,26.5255,-82.0032,2.14,1111122 
SCCF RECON,ioos:station:SCCF:13:1,2017-04-08T04:00:00Z,26.5255,-82.0032,2.44,1111122 
SCCF RECON,ioos:station:SCCF:13:1,2017-04-08T05:00:00Z,26.5255,-82.0032,2.36,1111122 
SCCF RECON,ioos:station:SCCF:13:1,2017-04-08T06:00:00Z,26.5255,-82.0032,2.17,1111122 
SCCF RECON,ioos:station:SCCF:13:1,2017-04-08T07:00:00Z,26.5255,-82.0032,2.08,1111122 
SCCF RECON,ioos:station:SCCF:13:1,2017-04-08T08:00:00Z,26.5255,-82.0032,1.95,1111122 
SCCF RECON,ioos:station:SCCF:13:1,2017-04-08T09:00:00Z,26.5255,-82.0032,1.83,1111122 
SCCF RECON,ioos:station:SCCF:13:1,2017-04-08T10:00:00Z,26.5255,-82.0032,1.88,1111122 
SCCF RECON,ioos:station:SCCF:13:1,2017-04-08T11:00:00Z,26.5255,-82.0032,1.92,1111122 
SCCF RECON,ioos:station:SCCF:13:1,2017-04-08T12:00:00Z,26.5255,-82.0032,1.89,1111122 
SCCF RECON,ioos:station:SCCF:13:1,2017-04-08T13:00:00Z,26.5255,-82.0032,2.01,1111122 
SCCF RECON,ioos:station:SCCF:13:1,2017-04-08T14:00:00Z,26.5255,-82.0032,5.01,1111122 
SCCF RECON,ioos:station:SCCF:13:1,2017-04-08T15:00:00Z,26.5255,-82.0032,1.83,1111122 
SCCF RECON,ioos:station:SCCF:13:1,2017-04-08T16:00:00Z,26.5255,-82.0032,2.81,1111122 
SCCF RECON,ioos:station:SCCF:13:1,2017-04-08T17:00:00Z,26.5255,-82.0032,3.45,1111122 
SCCF RECON,ioos:station:SCCF:13:1,2017-04-08T18:00:00Z,26.5255,-82.0032,3.36,1111122 
SCCF RECON,ioos:station:SCCF:13:1,2017-04-08T19:00:00Z,26.5255,-82.0032,2.71,1111122 
SCCF RECON,ioos:station:SCCF:13:1,2017-04-08T20:00:00Z,26.5255,-82.0032,2.12,1111122 
SCCF RECON,ioos:station:SCCF:13:1,2017-04-08T21:00:00Z,26.5255,-82.0032,1.87,1111122 
SCCF RECON,ioos:station:SCCF:13:1,2017-04-08T22:00:00Z,26.5255,-82.0032,1.72,1111122 
SCCF RECON,ioos:station:SCCF:13:1,2017-04-08T23:00:00Z,26.5255,-82.0032,1.87,1111122 
SCCF RECON,ioos:station:SCCF:13:1,2017-04-09T00:00:00Z,26.5255,-82.0032,2.48,1111122 
SCCF RECON,ioos:station:SCCF:13:1,2017-04-09T01:00:00Z,26.5255,-82.0032,2.68,1111122 
SCCF RECON,ioos:station:SCCF:13:1,2017-04-09T02:00:00Z,26.5255,-82.0032,4.32,1111122 
SCCF RECON,ioos:station:SCCF:13:1,2017-04-09T03:00:00Z,26.5255,-82.0032,3.09,1111122 
SCCF RECON,ioos:station:SCCF:13:1,2017-04-09T04:00:00Z,26.5255,-82.0032,2.73,1111122 
SCCF RECON,ioos:station:SCCF:13:1,2017-04-09T05:00:00Z,26.5255,-82.0032,2.62,1111122 
SCCF RECON,ioos:station:SCCF:13:1,2017-04-09T06:00:00Z,26.5255,-82.0032,3.53,1111122 
SCCF RECON,ioos:station:SCCF:13:1,2017-04-09T07:00:00Z,26.5255,-82.0032,3.47,1111122 
SCCF RECON,ioos:station:SCCF:13:1,2017-04-09T08:00:00Z,26.5255,-82.0032,1.67,1111122 
SCCF RECON,ioos:station:SCCF:13:1,2017-04-09T09:00:00Z,26.5255,-82.0032,1.73,1111122 
SCCF RECON,ioos:station:SCCF:13:1,2017-04-09T10:00:00Z,26.5255,-82.0032,1.91,1111122 
SCCF RECON,ioos:station:SCCF:13:1,2017-04-09T11:00:00Z,26.5255,-82.0032,2.1,1111122 
SCCF RECON,ioos:station:SCCF:13:1,2017-04-09T12:00:00Z,26.5255,-82.0032,2.06,1111122 
SCCF RECON,ioos:station:SCCF:13:1,2017-04-09T13:00:00Z,26.5255,-82.0032,2.03,1111122 
SCCF RECON,ioos:station:SCCF:13:1,2017-04-09T14:00:00Z,26.5255,-82.0032,17.11,1111122 
SCCF RECON,ioos:station:SCCF:13:1,2017-04-09T15:00:00Z,26.5255,-82.0032,25.53,1111122 
SCCF RECON,ioos:station:SCCF:13:1,2017-04-09T16:00:00Z,26.5255,-82.0032,8.19,1111122 
SCCF RECON,ioos:station:SCCF:13:1,2017-04-09T17:00:00Z,26.5255,-82.0032,2.23,1111122 
SCCF RECON,ioos:station:SCCF:13:1,2017-04-09T18:00:00Z,26.5255,-82.0032,2.37,1111122 
SCCF RECON,ioos:station:SCCF:13:1,2017-04-09T19:00:00Z,26.5255,-82.0032,2.71,1111122 
SCCF RECON,ioos:station:SCCF:13:1,2017-04-09T20:00:00Z,26.5255,-82.0032,3.57,1111122 
SCCF RECON,ioos:station:SCCF:13:1,2017-04-09T21:00:00Z,26.5255,-82.0032,2.13,1111122 
SCCF RECON,ioos:station:SCCF:13:1,2017-04-09T22:00:00Z,26.5255,-82.0032,2.02,1111122 
SCCF RECON,ioos:station:SCCF:13:1,2017-04-09T23:00:00Z,26.5255,-82.0032,2.03,1111122 
SCCF RECON,ioos:station:SCCF:13:1,2017-04-10T00:00:00Z,26.5255,-82.0032,2.13,1111122 
SCCF RECON,ioos:station:SCCF:13:1,2017-04-10T01:00:00Z,26.5255,-82.0032,2.43,1111122 
SCCF RECON,ioos:station:SCCF:13:1,2017-04-10T02:00:00Z,26.5255,-82.0032,2.77,1111122 
SCCF RECON,ioos:station:SCCF:13:1,2017-04-10T03:00:00Z,26.5255,-82.0032,1.95,1111122 
SCCF RECON,ioos:station:SCCF:13:1,2017-04-10T04:00:00Z,26.5255,-82.0032,1.87,1111122 
SCCF RECON,ioos:station:SCCF:13:1,2017-04-10T05:00:00Z,26.5255,-82.0032,2.18,1111122 
SCCF RECON,ioos:station:SCCF:13:1,2017-04-10T06:00:00Z,26.5255,-82.0032,2.22,1111122 
SCCF RECON,ioos:station:SCCF:13:1,2017-04-10T07:00:00Z,26.5255,-82.0032,2.5,1111122 
SCCF RECON,ioos:station:SCCF:13:1,2017-04-10T08:00:00Z,26.5255,-82.0032,2.26,1111122 
SCCF RECON,ioos:station:SCCF:13:1,2017-04-10T09:00:00Z,26.5255,-82.0032,1.77,1111122 
SCCF RECON,ioos:station:SCCF:13:1,2017-04-10T10:00:00Z,26.5255,-82.0032,1.65,1111122 
SCCF RECON,ioos:station:SCCF:13:1,2017-04-10T11:00:00Z,26.5255,-82.0032,1.83,1111122 
SCCF RECON,ioos:station:SCCF:13:1,2017-04-10T12:00:00Z,26.5255,-82.0032,1.75,1111122 
SCCF RECON,ioos:station:SCCF:13:1,2017-04-10T13:00:00Z,26.5255,-82.0032,1.8,1111122 
SCCF RECON,ioos:station:SCCF:13:1,2017-04-10T14:00:00Z,26.5255,-82.0032,1.68,1111122 
SCCF RECON,ioos:station:SCCF:13:1,2017-04-10T15:00:00Z,26.5255,-82.0032,1.56,1111122 
SCCF RECON,ioos:station:SCCF:13:1,2017-04-10T16:00:00Z,26.5255,-82.0032,1.68,1111122 
SCCF RECON,ioos:station:SCCF:13:1,2017-04-10T17:00:00Z,26.5255,-82.0032,1.88,1111122 
SCCF RECON,ioos:station:SCCF:13:1,2017-04-10T18:00:00Z,26.5255,-82.0032,1.94,1111122 
SCCF RECON,ioos:station:SCCF:13:1,2017-04-10T19:00:00Z,26.5255,-82.0032,2.06,1111122 
SCCF RECON,ioos:station:SCCF:13:1,2017-04-10T20:00:00Z,26.5255,-82.0032,2.15,1111122 
SCCF RECON,ioos:station:SCCF:13:1,2017-04-10T21:00:00Z,26.5255,-82.0032,1.94,1111122 
SCCF RECON,ioos:station:SCCF:13:1,2017-04-10T22:00:00Z,26.5255,-82.0032,2.16,1111122 
SCCF RECON,ioos:station:SCCF:13:1,2017-04-10T23:00:00Z,26.5255,-82.0032,2.49,1111122 
SCCF RECON,ioos:station:SCCF:13:1,2017-04-11T00:00:00Z,26.5255,-82.0032,3.32,1111122 
SCCF RECON,ioos:station:SCCF:13:1,2017-04-11T01:00:00Z,26.5255,-82.0032,2.6,1111122 
SCCF RECON,ioos:station:SCCF:13:1,2017-04-11T02:00:00Z,26.5255,-82.0032,2.5,1111122 
SCCF RECON,ioos:station:SCCF:13:1,2017-04-11T03:00:00Z,26.5255,-82.0032,2.42,1111122 
SCCF RECON,ioos:station:SCCF:13:1,2017-04-11T04:00:00Z,26.5255,-82.0032,4.0,1111122 
SCCF RECON,ioos:station:SCCF:13:1,2017-04-11T05:00:00Z,26.5255,-82.0032,1.94,1111122 
SCCF RECON,ioos:station:SCCF:13:1,2017-04-11T06:00:00Z,26.5255,-82.0032,2.09,1111122 
SCCF RECON,ioos:station:SCCF:13:1,2017-04-11T07:00:00Z,26.5255,-82.0032,2.2,1111122 
SCCF RECON,ioos:station:SCCF:13:1,2017-04-11T08:00:00Z,26.5255,-82.0032,2.39,1111122 
SCCF RECON,ioos:station:SCCF:13:1,2017-04-11T09:00:00Z,26.5255,-82.0032,2.82,1111122 
SCCF RECON,ioos:station:SCCF:13:1,2017-04-11T10:00:00Z,26.5255,-82.0032,1.78,1111122 
SCCF RECON,ioos:station:SCCF:13:1,2017-04-11T11:00:00Z,26.5255,-82.0032,1.71,1111122 
SCCF RECON,ioos:station:SCCF:13:1,2017-04-11T12:00:00Z,26.5255,-82.0032,1.76,1111122 
SCCF RECON,ioos:station:SCCF:13:1,2017-04-11T13:00:00Z,26.5255,-82.0032,1.71,1111122 
SCCF RECON,ioos:station:SCCF:13:1,2017-04-11T14:00:00Z,26.5255,-82.0032,37.04,1111122 
SCCF RECON,ioos:station:SCCF:13:1,2017-04-11T15:00:00Z,26.5255,-82.0032,1.63,1111122 
SCCF RECON,ioos:station:SCCF:13:1,2017-04-11T16:00:00Z,26.5255,-82.0032,2.66,1111122 
SCCF RECON,ioos:station:SCCF:13:1,2017-04-11T17:00:00Z,26.5255,-82.0032,88.88,1111122 
SCCF RECON,ioos:station:SCCF:13:1,2017-04-11T18:00:00Z,26.5255,-82.0032,36.48,1111122 
SCCF RECON,ioos:station:SCCF:13:1,2017-04-11T19:00:00Z,26.5255,-82.0032,39.38,1111122 
SCCF RECON,ioos:station:SCCF:13:1,2017-04-11T20:00:00Z,26.5255,-82.0032,26.48,1111122 
SCCF RECON,ioos:station:SCCF:13:1,2017-04-11T21:00:00Z,26.5255,-82.0032,10.34,1111122 
SCCF RECON,ioos:station:SCCF:13:1,2017-04-11T22:00:00Z,26.5255,-82.0032,4.56,1111122 
SCCF RECON,ioos:station:SCCF:13:1,2017-04-11T23:00:00Z,26.5255,-82.0032,3.34,1111122 
SCCF RECON,ioos:station:SCCF:13:1,2017-04-12T00:00:00Z,26.5255,-82.0032,3.16,1111122 
SCCF RECON,ioos:station:SCCF:13:1,2017-04-12T01:00:00Z,26.5255,-82.0032,3.97,1111122 
SCCF RECON,ioos:station:SCCF:13:1,2017-04-12T02:00:00Z,26.5255,-82.0032,3.81,1111122 
SCCF RECON,ioos:station:SCCF:13:1,2017-04-12T03:00:00Z,26.5255,-82.0032,5.84,1111122 
SCCF RECON,ioos:station:SCCF:13:1,2017-04-12T04:00:00Z,26.5255,-82.0032,30.95,1111122 
SCCF RECON,ioos:station:SCCF:13:1,2017-04-12T05:00:00Z,26.5255,-82.0032,32.55,1111122 
SCCF RECON,ioos:station:SCCF:13:1,2017-04-12T06:00:00Z,26.5255,-82.0032,9.64,1111122 
SCCF RECON,ioos:station:SCCF:13:1,2017-04-12T07:00:00Z,26.5255,-82.0032,5.42,1111122 
SCCF RECON,ioos:station:SCCF:13:1,2017-04-12T08:00:00Z,26.5255,-82.0032,3.34,1111122 
SCCF RECON,ioos:station:SCCF:13:1,2017-04-12T09:00:00Z,26.5255,-82.0032,47.66,1111122 
SCCF RECON,ioos:station:SCCF:13:1,2017-04-12T10:00:00Z,26.5255,-82.0032,2.92,1111122 
SCCF RECON,ioos:station:SCCF:13:1,2017-04-12T11:00:00Z,26.5255,-82.0032,2.51,1111122 
SCCF RECON,ioos:station:SCCF:13:1,2017-04-12T12:00:00Z,26.5255,-82.0032,4.42,1111122 